User: anonymous   Login
Location: Vancouver
(49.2500°N, 123.1330°W)
Time: 22:29:17
(UTC-07:00)
Language:

S-56A Canister/Altair - Orbit

View from above orbital plane
View from above orbital plane
View from above satellite
View from above satellite

Ground track
Ground track

The orbit data is extracted from the following two-line orbital elements,

1    82U 61004B   17083.86106249 +.00000092 +00000-0 +11862-3 0  9998
2    82 038.8521 249.1430 1168319 146.7225 221.2745 12.25823115662915
Epoch (UTC): 24 March 2017 20:39:55
Eccentricity: 0.1168319
inclination: 38.8521°
perigee height: 639 km
apogee height: 2495 km
right ascension of ascending node: 249.1430°
argument of perigee: 146.7225°
revolutions per day: 12.25823115
mean anomaly at epoch: 221.2745°
orbit number at epoch: 66291

The dashed part of the orbit path shows where the satellite is in the earth's shadow,  

DLR